Regional Weather Roundup
Issued by NWS

Current Version | Previous Version | Text Only | Print | Product List | Glossary On
Versions: 1 2 3 4 5 6 7 8 9 10 11 12 13 14 15 16 17 18 19 20 21 22 23 24 25 26 27 28 29 30 31 32 33 34 35 36 37 38 39 40 41 42 43 44 45 46 47 48 49 50
000
ASCA42 TJSJ 071510
RWRPR
PUERTO RICO/U.S. VIRGIN ISLANDS HOURLY WEATHER ROUNDUP
NATIONAL WEATHER SERVICE SAN JUAN PR
1100 AM AST SUN FEB 07 2016

PRZ001-004-071600-
PUERTO RICO

CITY           SKY/WX    TMP DP  RH WIND       PRES   REMARKS
SAN JUAN LMM   MOSUNNY   79  72  78 SE9       30.07F
AGUADILLA      MOSUNNY   82  70  65 E12       30.06S
CEIBA          MOSUNNY   82  72  69 SE16      30.09F
$$

PRZ006-007-071600-
U.S. VIRGIN ISLANDS

CITY           SKY/WX    TMP DP  RH WIND       PRES   REMARKS
CHARLOTTE AMA  MOSUNNY   82  72  69 SE15      30.07F
CHRISTIANSTED  MOSUNNY   86  70  58 SE14      30.09R HX  90
$$

HOURLY WEATHER ROUNDUP FOR THE NEWS MEDIA

CITY           SKY/WX    TMP DP  RH WIND       PRES   REMARKS
ORLANDO        CLOUDY    47  42  83 W16G23    30.06R
NEW YORK       MOSUNNY   37  27  67 SW3       30.19F
NEWARK         MOSUNNY   39  23  52 W3        30.18F
CHICAGO        CLOUDY    39  29  67 SW17      29.81F WCI  30
HARTFORD       SUNNY     36  26  67 CALM      30.18R
BOSTON         MOSUNNY   32  25  74 CALM      30.19R
DALLAS         MOSUNNY   42  35  76 S9        30.24S
PHILADELPHIA   PTSUNNY   36  25  64 SW3       30.20S
LOS ANGELES    CLEAR     56  26  31 NE6       30.13S
WASHINGTON DC  PTSUNNY   31  25  78 NW5       30.19R WCI  26



USA.gov is the U.S. government's official web portal to all federal, state and local government web resources and services.